Simultaneous Nadir Overpasses (SNOs) Predictions

Prediction of SNOs between NOAA-20 and TERRA Satellite Orbit:

Table of predicted SNOs for the next 14.0 days since TLE Epoch: 10/12/2024
Index Date (NOAA-20) Time (NOAA-20) Lat,Lon (NOAA-20) SZA (NOAA-20 ) Date (TERRA) Time (TERRA) Lat,Lon (TERRA) SZA (TERRA ) Distance(km) Time Diff (sec)
1 10/12/2024 10:20:17 72.76, 16.44 80.39 10/12/2024 10:21:23 72.74, 16.45 80.37 2.18 66
2 10/12/2024 11:10:59 -72.67,-176.07 99.69 10/12/2024 11:10:47 -72.65,-176.05 99.71 1.86 12
3 10/14/2024 21:32:43 72.74,-151.65 81.29 10/14/2024 21:33:55 72.73,-151.74 81.28 2.99 72
4 10/14/2024 22:23:25 -72.66, 15.84 98.79 10/14/2024 22:23:19 -72.65, 15.77 98.80 2.62 6
5 10/14/2024 23:13:57 71.93,-175.42 80.47 10/14/2024 23:12:50 71.97,-177.76 80.58 80.67 67
6 10/17/2024 08:45:13 72.91, 39.89 82.37 10/17/2024 08:46:24 72.82, 40.26 82.26 15.45 71
7 10/17/2024 09:35:52 -72.67,-152.30 97.87 10/17/2024 09:35:49 -72.68,-152.34 97.86 2.13 3
8 10/17/2024 10:26:26 72.04, 16.24 81.49 10/17/2024 10:25:18 72.11, 14.31 81.61 66.57 68
9 10/19/2024 19:57:40 72.94,-128.30 83.29 10/19/2024 19:58:52 72.84,-127.86 83.17 18.09 72
10 10/19/2024 20:48:19 -72.70, 39.52 96.95 10/19/2024 20:48:17 -72.70, 39.54 96.95 0.62 2
11 10/19/2024 21:38:54 72.13,-152.03 82.47 10/19/2024 21:37:45 72.19,-153.72 82.57 57.79 69
12 10/22/2024 07:10:06 72.95, 63.58 84.17 10/22/2024 07:11:18 72.85, 64.00 84.05 17.87 72
13 10/22/2024 08:00:45 -72.71,-128.61 96.07 10/22/2024 08:00:43 -72.70,-128.61 96.08 0.61 2
14 10/22/2024 08:51:20 72.14, 39.84 83.35 10/22/2024 08:50:11 72.19, 38.14 83.45 58.33 69
15 10/24/2024 18:22:30 72.88,-104.38 84.95 10/24/2024 18:23:42 72.84,-104.15 84.90 8.66 72
16 10/24/2024 19:13:10 -72.69, 63.33 95.24 10/24/2024 19:13:07 -72.69, 63.23 95.23 3.22 3



Historial Predications of SNOs between NOAA-20 and TERRA
